Theta_e
301 301 300 300 299 299 299 298 297 297 298 298 297 297 296 296 296 295 294 294 294 294 293 293 293 292 291 289 289 289 289 289 289 289 289 288 287 286 286 285 285 285 285 284 284 284 283 283 284 285 285 283 283 282 282 281 280 280 280 281 281 280 279 279 279 279 278 278 279
299 299 298 297 297 297 298 297 296 296 297 298 297 297 296 296 295 294 294 293 293 294 293 293 292 291 290 289 290 290 290 290 290 290 288 287 286 286 285 285 285 285 285 285 284 284 284 283 284 285 286 284 283 282 282 280 279 280 280 280 280 279 279 279 279 278 278 278 278
298 298 297 297 297 297 297 296 296 296 295 296 296 296 296 295 295 294 294 293 293 293 293 293 292 291 290 290 290 291 291 292 291 289 288 286 286 285 285 285 285 285 284 284 284 284 284 283 284 285 286 285 283 283 283 280 280 280 281 280 280 280 280 281 279 278 278 279 278
297 297 296 296 296 296 296 296 295 295 295 296 295 295 295 295 294 294 293 292 292 293 293 293 291 291 290 291 291 291 291 291 290 288 287 286 285 285 284 284 284 284 284 284 284 283 283 282 284 285 285 283 282 283 283 282 280 280 281 281 280 280 281 282 280 280 280 280 278
295 295 296 295 295 295 296 296 295 295 296 296 296 295 294 293 293 293 293 293 293 293 293 292 292 291 291 291 291 291 290 289 288 287 286 285 285 284 284 284 284 284 284 283 283 283 282 282 284 284 283 282 283 283 282 280 280 280 280 281 281 281 282 282 281 281 281 280 279
294 294 294 295 295 295 296 296 295 296 296 296 295 294 293 293 293 293 293 293 293 292 292 291 291 291 290 291 291 291 289 288 286 286 286 285 284 284 284 284 284 283 283 282 282 282 282 282 284 284 283 283 282 281 280 279 279 280 280 281 281 281 281 280 281 280 280 279 278
294 294 294 294 294 295 295 295 296 296 296 295 294 293 293 292 293 293 293 293 292 292 291 291 291 291 291 291 291 289 288 286 286 285 285 285 285 284 284 284 283 283 282 282 282 281 281 281 284 285 284 284 284 281 279 278 279 280 280 280 281 280 279 278 278 279 278 277 277
294 294 294 294 295 295 295 296 296 295 295 295 294 293 292 292 292 292 292 292 292 291 291 291 291 291 292 291 290 288 287 286 285 285 285 285 285 284 284 283 283 282 282 281 281 281 281 281 284 284 283 284 284 282 279 278 278 279 279 279 279 278 277 276 276 277 278 277 277
293 293 293 294 295 295 296 295 295 295 294 294 293 292 292 293 292 292 292 292 291 291 291 291 291 291 291 290 289 288 287 286 286 285 285 284 284 284 283 283 283 282 281 280 280 281 281 282 283 283 283 284 284 281 279 278 278 278 278 278 278 277 277 276 276 276 276 276 277
293 293 293 294 294 294 295 294 294 293 293 292 292 291 291 291 292 292 292 292 291 290 290 290 290 290 290 289 289 288 287 287 286 285 285 284 284 284 284 283 283 282 281 280 280 280 281 282 282 281 280 280 279 279 278 278 278 278 278 278 277 277 276 276 276 276 276 276 277
293 293 294 294 293 293 293 293 292 292 292 291 291 291 291 291 291 291 291 290 290 289 289 289 290 290 290 289 288 288 287 286 285 285 284 284 284 284 284 283 283 283 282 280 280 280 281 282 281 280 279 278 278 278 278 278 278 278 277 276 276 276 276 276 275 275 275 275 276
293 292 292 292 292 292 292 291 290 290 290 290 290 291 291 291 290 290 289 288 289 289 289 289 290 290 290 289 288 287 286 285 284 284 284 284 283 283 283 283 282 282 282 281 280 281 281 281 280 280 279 278 277 278 278 278 278 277 277 276 275 275 276 276 276 275 275 275 275
292 291 291 290 290 291 290 290 289 289 289 290 290 290 290 290 288 288 288 288 289 289 289 288 288 289 288 288 287 285 284 284 284 283 283 283 283 282 282 282 282 282 281 281 281 281 281 281 280 279 278 278 278 278 278 278 277 277 276 276 275 276 276 277 277 276 275 275 275
291 290 290 289 290 290 290 289 289 290 290 290 289 289 288 288 287 287 288 288 288 288 288 287 287 287 286 286 285 284 283 283 283 283 283 283 282 282 282 282 282 282 281 281 281 281 281 280 279 279 278 278 278 277 277 277 277 276 276 276 276 277 278 278 277 276 275 276 275
290 289 289 289 289 289 289 289 289 289 289 289 288 288 287 287 286 286 287 288 288 287 287 286 285 285 285 285 284 283 283 282 282 282 283 282 282 282 282 282 282 281 281 281 280 280 280 279 278 278 278 278 278 277 277 277 276 276 276 277 277 278 279 279 277 276 276 276 275
289 289 289 289 289 289 289 289 289 289 289 288 287 287 286 286 285 286 286 287 287 287 286 285 285 284 283 283 283 283 282 282 282 283 283 283 283 282 282 282 282 281 281 280 280 279 279 278 278 278 278 278 277 277 277 277 277 277 277 278 279 280 279 278 277 276 275 275 274
289 289 289 289 289 289 289 289 289 288 288 287 286 286 286 286 285 285 286 286 286 286 285 284 283 283 282 282 282 282 282 282 282 283 283 283 283 283 282 282 281 281 280 280 280 279 279 279 279 279 278 278 278 277 277 277 278 278 280 281 281 280 279 278 277 275 274 274 273
289 289 289 289 289 289 288 288 288 287 287 287 286 286 286 286 286 286 286 285 286 285 285 283 282 282 282 282 281 282 282 282 283 283 283 283 283 282 282 282 281 280 280 280 280 280 279 279 279 279 278 278 278 278 278 279 279 280 281 281 280 279 278 277 276 274 273 272 272
290 289 290 290 289 289 288 287 287 287 286 286 286 286 286 286 286 286 286 285 285 284 284 283 282 281 281 282 281 281 282 282 283 283 283 282 282 282 282 281 280 280 280 280 280 280 280 280 279 279 279 279 279 279 280 280 280 281 281 280 278 277 276 275 273 273 272 271 271
290 290 290 290 289 289 288 287 287 287 287 286 286 286 286 286 286 286 286 285 284 283 283 282 282 282 282 282 282 282 282 282 283 283 283 282 282 282 281 281 280 279 279 279 280 280 280 280 279 279 279 280 280 280 280 280 280 280 279 277 276 275 274 273 272 271 271 270 270
290 290 290 289 289 288 288 287 287 287 287 287 287 287 287 287 286 286 285 284 284 283 283 283 283 283 283 283 283 283 282 282 282 282 282 282 282 281 280 280 279 279 278 279 279 280 280 279 280 280 281 282 281 281 280 280 279 277 276 274 274 273 272 272 271 271 270 269 269
290 290 289 289 288 288 288 287 287 287 287 287 287 287 287 287 286 285 285 285 284 284 284 283 283 283 283 283 283 283 282 282 282 282 281 281 281 280 279 279 279 278 278 278 279 279 279 280 281 282 282 282 280 280 280 279 277 275 274 273 272 272 272 271 270 270 269 269 269
290 289 288 288 287 287 287 287 287 286 287 287 287 287 287 286 286 286 285 286 285 285 284 284 284 284 284 284 283 283 282 281 281 280 280 279 279 279 278 278 279 278 278 278 278 278 279 280 281 280 280 280 279 280 279 278 275 274 273 273 273 272 271 270 269 269 268 268 269
289 288 287 286 286 286 286 287 287 287 287 287 287 287 286 286 286 286 286 286 286 285 285 284 284 284 284 284 284 283 282 281 280 279 279 278 278 278 278 278 278 278 278 278 279 280 281 280 279 279 278 279 279 278 277 276 274 273 273 273 273 272 271 270 269 268 269 269 269
288 287 287 286 286 286 287 287 287 287 287 287 287 287 286 286 286 285 285 285 285 285 284 284 283 283 283 284 283 283 282 281 280 279 279 278 278 278 277 277 277 278 279 280 284 285 284 282 281 279 279 279 278 277 276 275 274 273 273 273 272 271 271 270 269 269 269 269 269
287 287 287 286 286 287 287 288 288 288 288 287 287 287 287 286 286 285 285 285 284 284 284 284 283 283 283 283 282 281 281 280 279 279 279 278 278 277 277 277 278 279 281 284 286 287 286 285 284 281 279 278 277 276 275 274 274 273 272 271 271 270 270 270 270 270 269 269 269
287 287 287 287 287 287 288 288 289 288 288 287 287 287 287 287 286 286 285 285 284 284 284 284 283 283 283 282 281 280 280 278 278 278 278 278 278 277 277 277 278 280 283 287 287 287 287 287 285 283 280 277 276 276 275 274 273 272 270 269 269 269 269 270 270 270 270 269 269
287 287 287 287 288 288 289 289 289 288 288 287 287 287 287 286 286 286 286 285 284 284 284 284 283 283 282 281 281 280 279 278 278 278 278 278 278 277 277 277 278 281 285 288 288 288 287 287 286 284 281 277 275 275 274 273 271 270 269 268 268 268 268 269 269 269 269 269 268
287 287 288 288 288 289 289 289 289 288 288 287 287 287 287 286 286 286 285 284 284 284 284 284 283 282 281 281 280 279 278 278 278 278 278 278 277 277 277 277 278 281 285 289 288 288 287 287 286 285 283 280 275 273 272 271 270 269 268 268 268 268 268 268 268 268 268 268 268
288 288 289 289 289 289 290 289 289 288 288 287 287 287 287 286 286 286 285 284 284 284 283 282 282 282 281 281 280 279 278 277 277 278 278 278 277 277 277 278 279 282 286 289 288 288 287 287 286 285 284 282 276 272 270 269 269 269 269 268 268 267 267 267 267 267 267 267 267
289 289 289 290 290 290 289 289 288 288 287 287 287 287 287 286 286 285 285 284 284 283 282 281 281 281 281 280 279 279 278 277 278 278 278 278 278 278 277 278 278 282 286 289 288 287 287 287 286 285 284 283 277 272 269 268 268 268 269 269 268 268 267 267 267 267 267 267 266
290 290 290 290 290 289 289 288 288 287 287 287 287 287 287 286 285 285 284 283 282 282 281 281 281 281 280 279 278 278 278 277 278 279 279 279 279 278 278 278 278 281 285 288 288 287 287 287 286 286 285 284 277 272 269 268 268 268 268 268 268 268 268 268 267 267 267 267 266
291 291 291 290 290 289 288 288 287 287 287 287 287 287 286 285 285 284 283 282 282 282 282 282 282 282 281 280 279 278 277 277 278 279 279 279 279 279 278 278 278 281 285 288 288 287 287 287 287 286 286 285 277 272 268 268 268 267 268 268 268 267 267 267 267 267 267 267 266
291 291 291 290 289 288 288 287 287 287 287 287 287 286 285 284 284 283 282 282 281 281 281 281 281 281 280 279 279 278 277 276 277 278 278 278 279 279 279 278 279 282 286 288 288 288 287 287 287 286 286 285 277 271 268 268 268 268 268 268 268 267 267 267 267 267 267 266 266
291 291 290 289 289 288 287 287 287 287 287 287 286 285 284 283 283 283 282 282 281 281 280 279 279 278 278 277 277 276 277 277 277 278 278 278 278 278 279 279 279 282 286 288 288 288 288 288 287 287 286 283 275 270 268 269 268 268 268 268 268 268 267 267 267 267 267 266 266
291 290 290 289 288 288 287 287 287 287 286 286 285 284 283 283 283 282 282 281 281 280 280 278 277 277 277 276 276 276 277 278 278 278 278 278 278 278 279 278 278 281 285 287 288 288 288 287 287 287 285 280 273 269 268 269 268 268 268 268 268 268 268 268 268 267 267 266 266
291 290 289 288 287 287 286 286 286 286 285 285 284 284 283 283 283 282 281 280 280 280 279 278 278 277 277 276 276 276 277 279 279 279 279 279 279 279 279 279 278 280 283 287 288 288 288 287 287 287 284 277 271 269 269 268 268 268 268 268 268 268 267 267 267 267 266 266 266
290 289 289 288 287 286 286 286 286 285 285 284 283 283 283 282 282 281 280 279 280 280 279 278 278 277 277 276 276 276 277 278 279 280 279 279 279 279 279 279 278 279 281 285 287 288 288 288 287 286 283 275 271 270 269 269 268 268 268 268 268 267 267 266 265 265 265 266 268
289 289 288 287 287 286 286 285 285 285 284 283 283 283 282 282 281 281 279 278 279 279 279 278 278 277 276 276 276 276 277 277 279 279 280 280 280 280 280 279 279 279 281 284 286 287 288 288 287 287 284 277 272 271 270 269 268 268 268 268 268 267 267 265 265 265 265 265 271
288 288 287 287 286 285 285 285 284 284 283 283 283 282 282 281 280 280 280 277 277 277 278 278 278 277 276 275 276 277 277 277 278 279 280 280 281 282 282 280 279 279 280 284 286 287 288 288 288 287 285 278 273 271 270 269 269 268 268 268 268 268 267 266 265 265 265 264 269
286 286 286 286 285 285 285 284 283 283 282 282 282 282 281 279 279 278 278 276 276 276 276 277 277 276 275 275 276 276 277 278 278 278 279 279 280 282 283 280 279 279 280 282 285 287 288 288 288 288 286 279 273 271 270 269 269 269 269 269 268 268 268 268 266 265 265 265 265
Wind_Speed
6 6 5 5 5 5 4 4 4 4 5 5 5 5 5 5 5 4 4 4 4 4 4 3 4 4 4 5 5 5 5 5 5 5 6 6 6 5 5 4 4 4 4 4 3 3 3 2 2 1 1 1 1 1 1 1 2 2 2 2 2 2 3 3 3 3 3 3 1
7 6 6 5 5 5 5 4 4 4 4 4 5 5 5 5 5 4 4 4 4 4 4 3 4 4 5 5 5 5 6 6 6 6 6 5 5 5 5 4 4 4 4 5 4 3 3 3 2 2 1 1 1 1 1 1 2 2 3 2 2 2 2 2 2 2 2 2 1
7 7 7 6 6 6 6 5 5 5 5 4 4 4 5 4 4 4 4 4 4 4 4 4 4 5 5 5 4 5 5 6 6 6 5 5 4 4 4 4 4 4 4 4 4 4 3 3 2 2 2 1 1 1 2 2 2 2 2 3 2 2 2 2 1 1 1 1 1
8 8 8 8 9 9 8 7 7 7 6 5 5 4 4 4 4 4 4 4 4 4 4 5 5 5 5 5 5 5 5 6 6 6 6 5 4 4 4 4 4 4 4 3 3 3 3 3 2 2 2 2 2 2 2 2 2 2 1 2 1 1 1 1 1 1 1 1 1
8 8 8 8 10 9 8 8 9 8 7 6 5 5 4 4 4 4 4 5 5 5 5 6 5 5 5 5 6 6 5 5 6 6 6 5 4 4 3 3 4 4 3 3 3 3 3 2 2 1 2 2 2 2 2 2 2 1 1 1 1 1 1 2 2 1 1 1 1
9 8 8 8 9 9 8 8 9 9 7 6 6 6 6 4 5 5 5 6 5 6 6 6 6 5 5 6 6 6 5 5 5 5 6 6 5 4 3 3 3 3 3 2 2 2 2 2 2 1 1 1 1 1 1 2 2 2 1 2 1 2 2 2 2 2 2 1 1
10 10 9 9 9 9 9 8 9 8 7 7 8 8 7 6 6 7 7 7 6 6 6 6 6 6 6 6 6 6 6 5 4 5 5 6 5 4 4 3 3 2 2 2 2 2 2 2 2 1 1 1 1 1 1 2 2 2 2 2 2 2 2 2 1 1 2 1 1
9 9 10 10 10 10 10 10 9 8 7 6 7 8 8 8 8 8 7 7 6 6 5 5 6 7 7 7 7 6 6 6 5 5 5 5 5 5 4 3 3 2 2 2 2 2 2 2 1 1 1 1 1 1 1 2 2 3 3 2 1 1 1 1 1 1 2 2 1
8 8 8 8 9 9 10 9 8 8 7 7 7 8 8 9 9 8 8 6 6 6 5 5 6 7 7 7 7 7 7 7 6 6 5 5 5 5 4 3 3 2 2 2 2 3 2 2 1 1 1 1 1 1 2 3 3 3 3 2 1 1 1 1 1 1 1 1 1
8 8 7 7 7 8 8 8 7 7 7 7 7 7 7 8 8 8 7 6 6 5 5 5 6 7 7 7 7 7 7 6 6 6 5 5 5 5 5 4 4 3 3 2 2 3 3 2 2 1 1 1 2 2 3 3 4 4 3 2 2 2 2 2 2 1 1 0 1
9 8 8 7 7 8 8 8 7 7 7 8 7 7 7 7 7 6 6 5 6 6 6 6 6 7 7 7 7 7 6 5 5 6 6 5 5 5 5 5 4 4 3 3 3 3 3 2 2 2 2 1 2 3 3 4 5 4 3 2 2 2 2 2 2 1 1 1 1
9 8 7 7 8 8 8 8 7 6 7 8 8 7 7 7 6 6 6 6 6 6 6 5 6 7 7 6 6 6 5 5 5 5 6 6 5 4 4 4 4 3 3 3 3 3 3 3 3 3 2 2 2 2 3 4 5 5 4 3 2 2 1 1 2 1 1 1 2
9 8 8 8 8 8 9 8 7 7 7 9 8 8 7 7 7 7 7 7 6 6 5 4 5 6 6 6 6 5 5 5 5 5 5 5 4 4 4 3 3 3 3 3 3 3 3 3 4 4 4 3 2 3 3 4 5 5 4 3 2 1 1 1 2 1 1 1 2
9 9 8 8 9 9 8 8 7 7 8 9 9 8 8 7 7 7 7 7 7 6 5 4 4 4 4 5 5 5 5 5 4 4 4 4 3 4 4 3 3 3 2 3 3 3 3 3 4 4 5 5 4 4 4 4 4 4 4 3 2 1 0 1 1 1 1 2 2
9 9 9 9 9 8 8 8 7 7 8 8 8 7 7 7 7 7 7 7 7 6 5 5 4 3 2 3 4 4 5 4 4 4 4 3 3 4 4 3 3 2 2 2 2 3 3 3 4 4 5 6 6 5 4 4 4 4 3 3 2 1 1 2 2 2 2 2 2
10 10 9 9 9 8 7 7 6 6 7 7 7 7 6 6 6 6 6 7 7 6 5 5 4 3 2 2 3 4 4 4 4 4 4 4 4 4 3 3 2 2 2 3 3 3 3 3 3 5 6 7 7 6 5 4 4 4 3 3 3 2 2 3 2 2 2 2 1
11 10 10 10 9 9 7 6 5 5 5 6 6 6 6 6 5 5 6 6 6 6 6 5 4 3 3 2 2 3 3 3 3 4 4 4 4 3 2 2 1 2 3 3 4 4 4 4 4 5 6 7 7 7 6 5 4 4 3 3 3 3 3 3 2 2 2 2 2
11 10 10 10 10 9 9 7 6 5 5 6 6 6 5 6 6 5 5 5 6 6 6 5 3 3 3 3 3 3 3 3 4 4 4 4 3 2 2 2 2 3 3 4 5 6 6 6 6 6 6 7 7 6 6 5 5 4 4 3 3 2 2 2 2 2 2 2 2
11 11 11 11 11 11 10 10 8 7 6 6 6 6 6 6 6 6 5 4 4 5 6 5 4 3 3 3 3 3 3 3 4 4 4 3 2 2 2 3 3 4 4 5 6 6 7 7 7 6 6 6 6 6 5 5 4 4 3 2 2 1 2 2 2 3 3 3 3
12 12 11 11 12 12 12 12 11 9 8 7 7 7 7 6 6 6 5 4 3 4 5 5 4 3 3 3 3 3 3 3 3 3 3 2 2 3 3 3 4 4 5 5 6 7 7 8 7 7 6 6 6 5 5 4 3 3 2 1 1 1 1 2 2 3 3 3 3
11 12 11 11 12 12 12 12 11 11 10 9 8 8 7 6 5 5 5 4 4 4 4 4 4 3 3 3 3 3 2 2 2 2 2 2 2 3 3 4 5 5 5 5 6 7 7 7 7 6 6 6 6 5 4 3 3 2 2 1 1 1 2 2 2 2 2 2 2
10 10 10 9 10 10 10 10 10 10 10 9 8 7 6 5 5 4 4 4 4 4 4 3 3 3 3 3 3 3 2 2 2 2 2 2 2 2 3 4 5 6 6 6 6 7 7 6 6 6 6 6 5 5 4 4 3 2 2 1 1 2 2 2 2 2 2 2 3
9 8 7 7 7 7 8 8 9 9 9 8 7 6 6 5 4 4 4 4 4 4 3 2 2 3 3 3 3 3 3 2 2 1 1 1 2 3 3 4 6 7 7 6 6 6 6 6 5 5 5 5 5 5 5 4 4 3 3 2 2 2 2 2 2 2 2 2 3
8 7 6 5 6 6 7 7 8 8 9 8 8 7 6 5 5 4 4 4 4 4 3 2 2 2 2 2 3 3 4 3 2 2 1 2 2 3 3 4 5 5 6 5 6 6 6 6 5 5 5 5 5 5 5 4 4 4 3 3 2 1 1 2 2 2 2 2 3
9 8 7 7 7 7 7 8 8 8 9 8 8 7 6 6 5 5 4 4 4 3 3 3 2 2 2 2 3 3 4 4 4 3 3 2 3 3 3 3 3 4 4 5 7 9 8 7 6 5 5 5 4 4 4 4 4 4 4 3 2 1 1 1 2 2 2 2 3
9 9 8 8 8 8 9 9 9 9 9 8 8 7 7 6 5 5 5 4 4 3 3 3 3 2 2 3 3 3 3 3 4 5 5 5 4 3 3 3 3 3 4 6 9 10 10 10 9 7 6 5 5 5 4 4 4 4 4 4 3 3 2 1 2 2 3 3 3
9 9 9 9 9 9 9 9 9 9 9 9 8 8 7 6 5 5 5 5 4 3 3 2 3 3 3 3 3 3 3 2 3 4 5 6 6 5 4 3 3 4 5 8 11 11 11 11 11 9 7 5 5 5 5 4 4 4 4 3 3 3 3 3 3 3 3 3 3
9 9 9 9 9 9 9 9 9 10 9 9 9 8 7 6 6 6 5 4 3 3 2 2 2 2 2 2 2 3 3 3 3 3 4 6 6 6 5 4 4 5 7 10 12 12 12 12 12 11 9 6 5 5 5 5 5 4 3 3 4 4 4 4 4 3 3 3 3
10 10 10 10 10 9 9 9 10 10 10 9 8 8 7 6 6 6 5 4 3 2 2 2 1 1 2 2 2 2 3 3 3 3 4 5 5 5 5 5 5 6 9 12 13 13 12 12 12 11 10 8 5 4 4 5 5 4 4 3 4 4 4 4 4 4 4 4 3
10 10 10 10 10 9 9 9 9 9 9 8 7 7 6 6 6 5 4 3 3 2 2 2 2 2 2 2 2 2 2 2 3 4 5 6 5 5 5 5 5 7 10 13 13 13 13 12 12 11 10 9 6 5 4 4 4 4 4 4 4 5 5 5 5 5 4 4 3
10 10 10 10 10 9 9 8 9 8 8 7 7 7 6 6 5 4 3 3 2 2 2 2 2 2 2 2 2 2 2 3 3 4 5 7 6 6 6 6 6 7 10 13 13 13 13 13 12 11 11 10 7 5 4 4 5 5 5 5 5 6 6 5 5 5 5 5 4
10 10 11 11 10 9 8 8 8 8 7 7 7 6 6 5 4 3 2 2 2 2 2 2 2 2 1 1 2 2 3 3 4 5 6 7 7 6 6 7 7 8 10 14 13 13 13 13 12 11 11 10 7 6 5 4 5 4 4 5 5 6 6 5 5 6 6 6 5
10 11 11 11 10 9 8 8 7 7 7 7 6 6 5 4 3 2 1 1 2 3 3 3 3 2 2 2 2 2 3 4 5 6 7 7 7 7 7 7 6 7 10 13 13 13 13 12 12 12 11 10 7 6 5 4 4 3 3 3 4 5 5 5 6 6 6 6 6
10 10 10 10 9 9 8 7 7 7 7 6 6 6 5 4 3 2 2 2 2 2 2 3 3 3 2 2 2 3 3 4 5 5 6 6 7 7 7 6 6 7 10 13 13 13 13 12 12 12 11 10 7 5 4 4 3 3 3 3 4 4 4 5 6 6 6 6 6
10 10 10 9 9 8 7 7 6 6 7 7 6 5 4 3 3 3 3 2 2 2 1 1 1 1 1 1 2 2 3 4 5 5 6 6 7 7 7 7 6 8 11 13 13 13 13 13 12 12 11 9 6 5 4 4 4 4 4 4 4 4 5 5 6 6 6 6 5
10 10 10 9 8 8 7 7 6 6 7 7 5 4 3 3 3 2 2 2 2 2 1 1 1 1 1 1 2 2 3 5 5 6 6 7 7 8 8 8 7 9 12 14 14 14 14 13 13 12 11 8 5 4 4 4 4 4 4 4 5 5 6 6 6 6 5 5 5
9 10 9 9 8 7 7 7 7 7 6 6 4 4 3 3 2 2 2 2 2 2 1 1 1 1 2 3 3 3 4 5 6 7 7 7 8 8 8 8 8 9 11 14 14 15 15 14 14 13 10 6 5 4 4 3 3 3 4 4 5 6 6 5 5 5 5 5 6
8 9 9 9 8 7 6 6 7 7 6 5 3 3 3 3 2 2 2 2 2 2 2 1 2 2 3 4 4 4 4 4 6 7 8 8 9 9 9 9 8 9 10 13 15 15 15 15 15 14 11 6 5 5 5 4 4 4 4 5 5 5 5 4 4 4 5 6 8
7 8 8 8 7 7 6 6 6 6 5 4 3 2 2 2 2 2 2 2 2 2 2 2 2 3 3 3 3 3 4 4 5 7 8 9 9 9 9 9 8 9 10 13 15 16 16 16 16 15 13 7 6 5 5 5 4 4 4 5 5 5 5 4 4 4 5 7 10
6 7 7 7 7 6 6 5 5 4 4 3 3 3 2 2 2 2 2 2 2 2 2 2 3 3 2 2 3 3 4 4 5 6 7 9 10 10 10 9 9 9 10 13 15 17 17 17 17 17 14 7 6 5 5 5 4 5 5 5 5 5 5 5 4 4 5 6 8
5 6 6 6 6 6 6 5 4 3 3 3 3 3 2 2 1 1 1 1 1 1 2 2 2 2 2 2 3 3 4 5 6 7 7 8 8 9 10 9 9 9 9 11 15 17 18 18 18 17 15 8 6 5 5 5 4 5 6 6 6 5 5 5 4 4 4 5 6
Wind_Direction
152 153 152 150 148 145 142 139 141 145 147 150 152 152 151 148 148 149 150 149 147 145 143 143 146 150 154 158 151 139 129 121 119 120 123 127 133 138 141 143 143 142 143 145 146 146 146 144 136 130 127 126 124 124 125 136 143 147 156 172 179 175 171 173 187 193 193 198 198
150 148 145 141 139 136 134 135 139 143 146 149 149 149 148 147 146 147 146 144 139 135 134 137 143 148 152 154 144 134 127 125 125 125 127 132 138 143 146 148 150 151 151 151 152 154 156 153 147 143 141 133 125 129 145 168 158 156 164 182 185 177 171 177 186 185 179 175 162
149 147 145 144 144 144 144 146 148 148 147 145 144 143 143 142 141 141 139 134 129 129 134 142 147 148 144 140 131 127 127 130 131 132 134 139 145 150 152 153 156 157 158 157 159 160 160 158 153 151 150 150 142 151 167 183 171 166 171 186 183 172 164 171 163 151 138 129 137
149 150 151 152 152 152 152 153 152 150 148 144 138 134 132 130 130 129 127 124 127 133 142 148 147 143 136 129 124 123 126 132 135 138 142 149 156 162 164 160 161 165 167 164 163 161 160 156 151 149 151 157 162 172 180 179 169 169 174 177 158 150 142 133 120 117 116 117 137
154 156 157 157 156 155 152 151 150 149 147 141 136 131 126 124 124 126 128 132 141 147 148 143 139 134 129 126 127 128 130 134 139 143 149 157 167 172 174 170 171 172 173 167 163 159 154 149 144 146 154 162 172 179 175 159 149 144 132 105 107 109 108 97 95 95 96 94 93
158 158 156 155 153 150 147 147 147 146 144 139 135 133 131 132 134 138 141 145 147 144 139 133 130 128 127 128 133 136 139 143 147 151 156 164 171 176 179 183 182 177 171 165 158 152 146 140 140 147 153 158 163 158 138 124 123 113 91 66 60 66 76 81 84 88 88 85 71
157 156 154 153 150 147 145 146 144 141 139 136 135 136 139 140 142 144 144 143 140 137 136 133 134 135 137 140 142 145 150 155 161 163 165 168 172 177 182 188 185 178 168 159 153 147 142 138 143 150 150 137 129 103 92 95 103 101 91 76 57 60 72 84 96 103 108 110 115
154 153 152 151 148 146 143 143 140 137 135 135 138 139 141 141 142 141 139 136 139 141 143 143 145 147 149 151 153 157 160 164 171 175 175 171 173 177 183 185 183 180 173 155 150 149 147 140 140 141 140 130 120 105 93 91 92 92 91 90 70 60 73 100 113 120 125 133 162
148 147 145 143 142 141 139 138 135 134 133 133 136 139 140 140 139 138 138 140 145 147 148 149 151 152 153 155 159 164 168 172 176 179 179 174 173 177 183 186 187 187 180 157 150 148 146 137 124 116 115 118 119 113 105 101 96 94 94 100 89 61 40 44 62 89 110 129 190
144 141 137 134 134 132 130 127 125 124 125 128 131 134 136 137 138 140 143 146 146 148 149 153 153 154 156 160 165 170 175 177 176 176 176 178 178 180 184 188 190 189 185 169 154 147 140 132 118 105 98 107 118 118 112 106 104 103 100 94 84 63 34 9 19 33 53 56 263
141 138 135 133 130 125 120 117 115 116 119 124 129 132 134 137 139 141 142 141 143 150 156 157 155 157 162 167 173 177 178 176 174 173 175 180 184 186 187 190 189 186 180 168 157 148 140 133 125 120 113 110 116 115 112 108 106 104 97 77 69 60 39 357 357 4 10 320 282
136 133 130 128 126 122 119 118 117 118 122 127 132 136 139 142 142 141 140 140 149 157 162 161 161 164 169 175 179 179 175 172 170 171 174 181 187 191 192 194 192 185 174 163 157 151 146 143 140 137 131 115 105 105 108 108 104 101 93 76 64 55 35 339 336 340 335 288 281
132 129 127 126 125 124 123 124 126 129 132 136 141 143 145 147 145 143 144 148 156 161 163 166 168 171 174 178 177 174 168 166 167 169 174 182 187 192 197 202 198 186 172 161 158 155 153 150 146 142 134 117 98 94 100 104 103 101 98 90 72 53 11 322 321 315 294 268 274
131 130 131 132 131 130 131 133 136 139 142 145 148 149 149 149 148 149 150 156 160 162 163 169 176 179 178 173 169 165 163 160 161 167 176 186 189 196 202 208 201 186 167 158 155 153 152 149 145 139 129 115 103 95 94 98 102 105 108 110 103 85 331 303 294 282 269 260 267
133 135 136 137 137 137 139 141 143 146 147 149 150 150 149 150 151 153 154 158 161 162 163 168 175 177 170 158 156 155 155 154 158 167 178 193 201 206 210 213 202 180 157 146 138 133 133 132 133 128 121 115 110 105 101 101 105 112 119 127 136 153 224 264 259 253 248 251 266
139 141 142 141 141 141 142 145 146 148 149 150 150 149 148 151 152 153 155 159 161 162 162 166 166 159 143 130 137 142 147 151 160 172 185 199 209 214 217 216 200 169 146 133 120 108 103 109 118 118 116 116 116 116 115 114 118 123 132 144 156 180 213 237 240 239 235 234 250
145 146 146 145 143 143 143 143 144 146 148 148 149 150 151 152 154 156 160 162 161 161 162 163 156 146 138 131 129 136 144 154 168 182 194 204 209 211 213 209 180 154 140 131 121 112 107 106 110 113 116 120 122 125 127 129 131 138 146 159 175 197 215 229 232 230 223 216 229
149 149 148 146 144 144 142 141 142 144 148 150 153 155 156 156 159 161 164 164 160 159 158 155 145 139 139 141 139 141 149 161 180 194 201 204 200 195 189 180 162 152 146 140 134 128 124 118 117 118 120 123 126 131 135 138 141 149 158 171 188 205 222 233 228 221 213 209 222
151 151 151 150 149 147 146 145 147 151 155 158 160 162 164 164 163 162 162 163 157 151 148 143 138 136 137 141 144 149 159 169 185 197 203 199 187 183 180 173 160 152 149 145 141 137 133 128 129 130 130 128 130 134 139 142 147 155 162 172 185 208 230 236 227 218 212 208 217
154 155 156 157 155 153 152 151 153 157 161 165 166 168 169 169 163 158 156 157 146 135 132 133 136 140 143 145 150 161 172 177 186 197 204 197 191 188 183 169 155 148 146 145 144 140 136 134 138 138 136 132 133 136 140 143 148 151 151 150 170 215 231 234 229 221 217 214 218
159 161 161 161 159 158 157 155 156 158 161 165 168 168 166 163 156 153 150 145 130 121 120 128 139 148 156 159 166 173 177 171 178 191 199 195 192 185 173 157 147 144 144 146 145 141 138 138 141 140 137 132 135 138 142 145 146 143 141 148 204 226 233 236 233 230 226 224 225
163 163 162 160 160 158 156 154 154 155 156 160 162 160 156 149 145 141 135 128 121 119 123 134 149 160 166 170 169 164 150 131 146 163 175 177 174 165 153 145 143 143 146 149 145 141 138 137 138 137 135 133 138 143 147 150 150 153 165 192 219 233 241 243 239 238 236 233 232
159 157 153 151 150 149 147 147 146 146 147 148 149 147 143 140 134 128 121 120 122 128 136 149 158 166 169 167 154 140 126 117 118 120 129 137 141 140 141 142 146 149 151 153 148 141 136 133 134 135 136 139 144 150 155 156 158 164 175 190 211 235 252 257 253 251 247 245 240
149 145 141 139 139 138 139 139 139 139 139 139 141 140 138 135 128 122 119 122 129 138 147 155 160 162 159 148 137 134 133 134 136 132 126 123 128 133 138 143 150 154 155 156 152 146 140 136 138 142 146 147 153 156 159 160 163 167 172 175 184 215 265 284 280 272 264 260 253
141 139 138 139 140 140 140 141 141 139 136 135 136 136 134 131 128 127 128 134 140 147 151 155 159 155 146 135 132 134 140 148 151 150 146 139 134 136 139 146 153 158 158 155 152 148 145 145 149 152 155 157 158 159 161 164 167 168 168 165 165 174 226 284 290 285 275 266 262
139 139 141 143 143 144 145 148 143 136 130 129 130 131 133 134 135 137 141 145 149 152 153 156 160 158 147 133 130 134 144 156 158 155 152 149 146 145 146 152 158 159 158 157 153 151 151 153 156 158 160 161 160 161 164 169 170 167 163 160 161 166 180 217 255 269 274 269 265
141 143 145 146 146 147 149 148 139 131 127 127 130 134 139 144 146 147 147 145 146 148 152 157 159 153 143 130 134 144 158 172 166 160 156 154 154 155 159 164 166 164 161 159 157 157 158 161 164 165 165 163 164 166 168 171 168 163 159 160 165 171 180 195 217 237 255 269 271
146 147 147 146 147 148 148 142 134 130 130 133 138 142 146 150 150 146 140 132 132 136 145 159 153 140 128 128 145 160 170 175 170 162 156 154 154 157 161 167 170 169 166 163 162 163 165 168 170 171 171 166 166 166 165 163 162 162 163 168 174 182 188 196 207 219 234 254 269
147 147 146 146 146 146 143 139 135 134 136 139 142 144 146 147 140 131 123 120 131 146 162 171 147 129 130 147 162 167 170 173 166 157 152 151 154 158 163 167 172 173 171 168 168 169 172 174 176 177 176 171 165 161 160 159 161 165 171 179 184 189 195 202 208 215 224 237 256
146 145 145 145 144 143 142 140 138 137 138 139 140 140 138 133 124 120 121 134 154 171 175 158 144 148 161 171 166 167 169 174 164 156 152 153 158 164 170 173 176 177 176 174 174 176 178 179 181 181 179 173 164 157 156 158 162 168 178 188 192 195 200 205 209 214 219 227 242
145 144 143 142 142 142 142 139 136 135 135 136 136 134 130 123 120 124 136 158 170 169 150 133 141 158 173 172 165 166 171 171 166 164 162 163 165 170 176 179 181 182 182 180 181 182 183 184 184 184 182 175 166 160 160 161 167 173 182 191 196 199 202 206 210 213 215 217 223
144 143 141 140 141 141 139 136 133 132 132 132 131 128 123 119 121 131 150 166 158 148 142 141 154 168 182 180 177 178 177 176 177 177 175 173 171 172 176 183 187 189 189 186 186 187 188 188 188 188 185 178 170 165 164 163 169 176 185 194 198 200 202 206 212 214 214 212 211
142 140 139 139 139 138 136 134 132 131 130 128 125 121 118 116 120 136 165 178 165 162 164 168 174 183 192 196 192 193 192 189 187 185 182 177 172 170 174 183 192 196 195 191 191 191 192 193 193 192 189 182 172 165 163 161 165 174 186 201 206 206 206 208 214 217 217 214 210
139 138 137 137 137 136 134 134 132 130 126 122 119 117 118 124 141 167 191 195 183 175 172 173 175 179 185 185 185 191 194 193 189 186 182 177 170 169 174 186 196 201 200 196 195 195 196 197 197 196 193 184 170 161 159 159 165 178 196 213 220 219 217 217 221 223 222 218 214
138 137 137 136 135 135 135 134 132 128 125 122 121 123 129 146 170 185 191 185 171 163 160 161 155 155 159 172 180 185 188 188 186 182 179 173 169 172 179 192 202 205 204 201 199 199 200 200 200 199 194 182 166 158 160 164 175 189 204 218 229 232 230 228 229 230 229 224 219
139 138 137 137 137 137 138 137 134 130 127 127 130 138 153 176 190 191 180 156 143 139 141 132 116 128 164 199 202 199 193 186 181 178 175 172 172 177 187 198 206 209 208 205 203 202 203 203 203 201 195 179 161 156 162 168 179 192 206 221 232 235 235 232 233 234 234 231 224
140 139 138 138 139 140 141 140 135 133 132 135 140 154 170 185 191 185 161 138 135 143 154 149 161 189 205 209 211 209 200 186 176 174 175 177 178 184 192 201 208 211 211 208 206 205 205 206 205 202 196 174 164 163 169 172 182 195 210 225 235 238 238 235 235 236 237 236 231
141 140 139 139 140 142 142 139 136 136 138 142 147 159 171 178 183 175 162 147 149 161 175 185 200 211 213 210 211 211 206 192 178 174 176 182 186 189 193 201 209 213 213 210 208 208 208 208 207 204 196 176 171 171 174 175 186 201 216 228 237 242 244 242 239 240 241 240 238
136 135 135 136 138 138 138 135 135 136 138 141 145 154 165 176 183 179 170 161 157 161 172 190 210 216 213 203 205 210 210 204 190 181 180 186 193 194 195 199 208 213 213 211 210 210 210 209 210 206 199 182 177 174 175 176 189 205 221 230 240 248 251 250 242 240 244 246 246
122 123 125 128 131 131 130 127 127 128 130 134 143 156 171 184 185 173 157 150 153 161 176 198 215 217 209 190 197 205 211 211 206 198 192 192 196 197 198 201 208 213 214 213 212 212 212 212 212 208 201 185 177 173 172 173 189 208 224 233 237 244 251 253 245 241 244 252 252
107 111 113 117 120 121 120 119 119 119 123 133 148 161 170 171 164 146 135 140 164 182 197 214 228 229 213 192 197 203 208 212 215 213 208 202 201 201 202 204 210 214 216 214 213 214 214 214 214 210 203 185 175 169 168 169 189 211 226 232 230 233 241 251 252 249 248 251 254